Weather in Orhaneli

Turkey     39°54′01″N   28°59′25″E
temp.,
°C
wind,
m/s
gust,
m/s
humid.,
%
clouds,
%
prec.,
mm/h
press.,
hPa
HPBL,
m
6 may, thu
thu600:00+13se2276100 0.0 101113
03:00+13ese2275100 0.0 101117
06:00+13s2273100 0.1 101243
09:00+12sse2288100 1.8 1014231
12:00+12sse229077 2.0 1015206
15:00+18wnw345835 2.4 10141405
18:00+17nw336315 0.3 10141148
21:00+12ne11920 0.3 101612
7 may, fri
fri700:00+11e22840 0.0 101715
03:00+11ese32890 0.0 101630
06:00+11ese228299 0.0 101623
09:00+17sse235896 0.0 1016362
12:00+22s3331100 0.0 10151438
15:00+24sw2325100 0.0 10141871
18:00+22nw1136100 0.0 1012828
21:00+17ese11545 0.0 101312
8 may, sat
sat800:00+16ese225289 0.0 101418
03:00+16ese335227 0.0 101238
06:00+16ese2248100 0.0 101118
09:00+21sse2336100 0.0 1012479
12:00+18ne2152100 0.2 1013263
15:00+17nw2665100 0.9 1013526
18:00+17nw347329 1.9 1013519
21:00+12nnw239489 2.0 1016211
9 may, sun
sun900:00+11nnw2394100 0.1 1018318
03:00+10nnw2496100 0.2 1019498
06:00+10n2391100 0.0 1020446
09:00+11nnw127897 0.1 1022639
12:00+16nne235216 0.1 10211268
15:00+18ne32423 0.1 10201377
18:00+15ne23475 0.0 1020975
21:00+8ene3368100 0.0 102357
10 may, mon
mon1000:00+7e22435 0.0 102416
03:00+6e22360 0.0 102214
06:00+6e22405 0.0 102212
09:00+13wsw01355 0.0 1020555
12:00+18wnw22320 0.0 10191196
15:00+20nw33330 0.0 10171344
18:00+17nw33430 0.0 1017583
21:00+10nne22690 0.0 101819